Location: Unspecified
(51.5147°N, 7.4673°E)
Time: 17:32:05
(UTC+01:00)

Vanguard 1 - Pass Details

Date: 18 February 2026
Orbit: 653 x 3818 km, 34.2° (Epoch: 5 March)

Event Time Altitude Azimuth Distance (km) Brightness Sun altitude
Rises 18:37:57 0° 255° (WSW) 5,553 16.3 -8.0°
Reaches altitude 10° 18:41:16 10° 249° (WSW) 4,917 15.1 -8.5°
Maximum altitude 18:55:17 43° 184° (S) 4,050 13.2 -10.7°
Drops below altitude 10° 19:15:30 10° 124° (ESE) 6,914 13.9 -13.8°
Enters shadow 19:18:57 - 120° (ESE) 7,509 14.0 -14.3°
